sat.trackr.live / text

‹ back to catalog

STARLINK-6052

NORAD 56793 · 2023-078AC

PAYLOAD ACTIVE UNKNOWN

§ Identity

Operator
Country
US
Launch date
2023-05-31
Launch site
AFWTR
Launch vehicle
Mass (kg)
RCS (m²)

Purposes: comms

External: N2YO · Heavens-Above · Gunter

§ Orbital elements

Epoch: 2026-05-25T03:39:46.145952Z

Period
96.11 min
Inclination
69.9983°
Eccentricity
0.0003808
Mean motion
14.98328614 rev/d
Perigee alt
569.4 km
Apogee alt
574.7 km
Semi-major
6,950.2 km
B*
1.8699e-5
RAAN
151.6656°
Arg perigee
266.6791°
Mean anomaly
93.3933°
Rev number
16,413

§ Raw data

STARLINK-60521 56793U 23078AC  26145.15261743  .00000130  00000+0  18699-4 0  99972 56793  69.9983 151.6656 0003808 266.6791  93.3933 14.98328614164133

JSON: /api/v1/satellites/56793 · /tle

For live sub-satellite position, see the globe view (requires WebGL).

§ Visibility from observer

Set your observer location to see the next 7 days of passes ≥ 10°. The values pass through the URL so the page stays shareable.

No JS? Fill the form by hand. The geolocation button needs JavaScript.